Orbital Elements at Epoch 2459200.5 (2020-Dec-17.0) TDB
Reference: JPL 16 (heliocentric ecliptic J2000)
Element | Value | Uncertainty (1-sigma) | Units |
e | .2166581812612378 | 4.6664e-08 | |
a | 2.211563063327597 | 1.0168e-08 | au |
q | 1.732409832282509 | 1.0094e-07 | au |
i | 3.836664904351732 | 5.3062e-06 | deg |
node | 224.649310296463 | 7.7329e-05 | deg |
peri | 50.293978304863 | 7.8788e-05 | deg |
M | 267.8961495562138 | 1.8656e-05 | deg |
tp | 2459507.842560020305 (2021-Oct-20.34256002) | 6.3694e-05 | TDB |
period | 1201.288774293306 3.29 | 8.2845e-06 2.268e-08 | d yr |
n | .2996781520844401 | 2.0667e-09 | deg/d |
Q | 2.690716294372686 | 1.2371e-08 | au |
|
| | Orbit Determination Parameters
Additional Information
|